This demonstration page uses our WeatherBlox Daily Observations layout. Learn more.

Left ArrowRight Arrow

47.50024, -111.30081

Hourly Observations for May 18, 2022

Temp ( °F °C ) Dew Point ( °F °C ) Humidity (%) Winds ( mph kmh ) Pressure ( in mb ) Visibility ( mi km ) Precip ( " mm )
12:53 am 00:53 Clear 40 4.4 27 -2.8 60 60 WSW 9 15 30.07 1018 10 16 0.00 0.00
1:53 am 01:53 Clear 43 6.1 26 -3.3 51 51 Calm 30.09 1019 10 16 0.00 0.00
2:53 am 02:53 Clear 46 7.8 23 -5 40 40 NW 3 6 30.07 1018 10 16 0.00 0.00
3:53 am 03:53 Clear 45 7.2 24 -4.4 44 44 W 6 9 30.09 1019 10 16 0.00 0.00
4:53 am 04:53 Clear 45 7.2 24 -4.4 44 44 W 5 7 30.09 1019 10 16 0.00 0.00
5:53 am 05:53 Sunny 44 6.7 25 -3.9 47 47 Calm 30.09 1019 10 16 0.00 0.00
6:53 am 06:53 Partly Cloudy 46 7.8 30 -1.1 54 54 SE 6 9 30.07 1018 10 16 0.00 0.00
7:53 am 07:53 Cloudy 50 10 25 -3.9 38 38 SSE 5 7 30.05 1018 10 16 0.00 0.00
8:53 am 08:53 Cloudy 51 10.6 28 -2.2 41 41 SW 8 13 30.06 1018 10 16 0.00 0.00
9:53 am 09:53 Partly Cloudy 57 13.9 25 -3.9 29 29 SW 12 19 30.02 1017 10 16 0.00 0.00
10:53 am 10:53 Mostly Cloudy 60 15.6 25 -3.9 26 26 SW 15 24 29.98 1015 10 16 0.00 0.00
11:53 am 11:53 Sunny 60 15.6 23 -5 24 24 SSW 16 26 29.92 1013 10 16 0.00 0.00
12:53 pm 12:53 Sunny 60 15.6 23 -5 24 24 SSW 16 26 29.88 1012 10 16 0.00 0.00
1:53 pm 13:53 Sunny 66 18.9 26 -3.3 22 22 SSW 21 33 29.81 1009 10 16 0.00 0.00
2:53 pm 14:53 Mostly Sunny 69 20.6 26 -3.3 20 20 WSW 23 37 29.74 1007 10 16 0.00 0.00
3:53 pm 15:53 Partly Cloudy 68 20 28 -2.2 22 22 WSW 25 41 29.72 1007 10 16 0.00 0.00
4:53 pm 16:53 Mostly Cloudy 66 18.9 30 -1.1 26 26 SW 21 33 29.70 1006 10 16 0.00 0.00
5:53 pm 17:53 Mostly Sunny 64 17.8 32 0 30 30 SW 29 46 29.66 1005 10 16 0.00 0.00
6:53 pm 18:53 Cloudy 63 17.2 35 1.7 35 35 WSW 28 44 29.65 1004 10 16 0.00 0.00
7:53 pm 19:53 Partly Cloudy 61 16.1 33 0.6 35 35 WSW 25 41 29.65 1004 10 16 0.00 0.00
8:53 pm 20:53 Cloudy 58 14.4 31 -0.6 36 36 W 24 39 29.66 1005 10 16 0.00 0.00
9:53 pm 21:53 Mostly Cloudy 54 12.2 28 -2.2 37 37 WSW 22 35 29.67 1005 10 16 0.00 0.00
10:53 pm 22:53 Mostly Clear 52 11.1 23 -5 32 32 W 25 41 29.67 1005 10 16 0.00 0.00
11:53 pm 23:53 Mostly Clear 48 8.9 28 -2.2 46 46 WSW 17 28 29.66 1005 10 16 0.00 0.00

Powered by AerisWeather